Location: Austin
(30.3000°N, 97.7500°W)
Time: 11:24:11
(UTC-05:00)

Cosmos 1536 - Pass Details

Date: 26 May 2023
Orbit: 526 x 553 km, 82.5° (Epoch: 30 May)

Event Time Altitude Azimuth Distance (km) Brightness Sun altitude
Rises 22:53:35 0° 346° (NNW) 2,689 7.3 -26.5°
Reaches altitude 10° 22:55:48 10° 340° (NNW) 1,790 6.3 -26.8°
Enters shadow 22:58:51 40° 300° (WNW) 793 4.0 -27.2°
